SCP
1 1 1 0 0 0 0 0 0 0 0 0 0 0 0 0 0 0 0 0 0 0 0 0 0 0 0 0 0 0 0 0 0 0 0 0 0 0 0 0 0 0 0
1 1 1 0 0 0 0 0 0 0 0 0 0 0 0 0 0 0 0 0 0 0 0 0 0 0 0 0 0 0 0 0 0 0 0 0 0 0 0 0 0 0 0
1 1 1 1 0 0 0 0 0 0 0 0 0 0 0 0 0 0 0 0 0 0 0 0 0 0 0 0 0 -0 -0 -0 0 0 0 0 0 0 0 0 0 0 0
1 1 1 1 0 0 0 0 0 0 0 0 0 0 0 0 0 0 0 0 0 0 0 0 0 0 0 0 -0 -0 -0 -0 0 0 0 0 0 0 0 0 0 0 0
1 1 1 1 1 0 0 0 0 0 0 0 0 0 0 0 0 0 0 0 0 0 0 0 0 0 0 0 -0 -0 -0 0 0 0 0 0 0 0 0 0 0 0 0
1 1 1 1 1 0 0 0 0 0 0 0 0 0 0 0 0 0 0 0 0 0 0 0 0 0 0 0 -0 -0 0 0 0 0 0 0 0 0 0 0 0 0 0
1 1 1 1 1 0 0 0 0 0 0 0 0 0 0 0 0 0 0 0 0 0 0 0 0 0 0 0 -0 -0 0 0 0 0 0 0 0 0 0 0 0 0 0
1 1 1 1 1 0 0 0 0 0 0 0 0 0 0 0 0 0 0 0 0 0 0 0 0 0 0 0 -0 -0 0 0 0 0 0 0 0 0 0 0 0 0 0
1 1 1 1 1 0 0 0 0 0 0 0 0 0 0 0 0 0 0 0 0 0 0 0 0 0 0 0 -0 -0 0 0 0 0 0 0 0 0 0 0 0 0 0
1 1 1 1 0 0 0 0 0 0 0 0 0 0 0 0 0 0 0 0 0 0 0 0 0 0 0 0 -0 -0 0 0 0 0 0 0 0 0 0 0 0 0 0
1 1 1 1 0 0 0 0 0 0 0 0 0 0 0 0 0 0 0 0 0 0 0 0 0 0 0 0 0 0 0 0 0 0 0 0 0 0 0 0 0 0 0
2 1 1 1 1 0 0 0 0 0 0 0 0 0 0 0 0 0 0 0 0 0 0 0 0 0 0 0 0 0 0 0 0 0 0 0 0 0 0 0 0 0 0
2 2 1 1 1 1 1 1 0 0 0 0 0 0 0 0 0 0 0 0 0 0 0 0 0 0 0 0 0 0 0 0 0 0 0 0 0 0 0 0 0 0 0
2 2 1 1 1 1 1 1 1 0 0 0 0 0 0 0 0 0 0 0 0 0 0 0 0 0 0 0 0 0 0 0 0 0 0 0 0 0 0 0 0 0 0
2 2 2 2 1 1 1 1 1 1 0 1 1 0 0 0 0 0 0 0 0 0 0 0 0 0 0 0 0 0 0 0 0 0 0 0 0 0 0 0 0 0 0
2 2 2 2 2 2 1 1 1 1 1 1 1 1 0 0 0 0 0 0 0 0 0 0 0 0 0 0 0 0 0 0 0 0 0 0 0 0 0 0 0 0 0
2 2 2 2 2 2 1 1 1 1 1 1 1 1 0 0 0 0 0 0 0 0 0 0 0 0 0 0 0 0 0 0 0 0 0 0 0 0 0 0 0 0 0
2 2 2 1 1 1 1 1 1 1 1 1 1 1 0 0 0 0 0 0 0 0 0 0 0 0 0 0 0 0 0 0 0 0 0 0 0 0 0 0 0 0 0
2 2 2 1 1 1 1 1 1 1 1 1 1 0 0 0 0 0 0 0 0 0 0 0 0 0 0 0 0 0 0 0 0 0 0 0 0 0 0 0 0 0 0
2 2 2 2 1 1 1 1 1 1 1 1 1 0 0 0 0 0 0 0 0 0 0 0 0 0 0 0 0 0 0 0 0 0 0 0 0 0 0 0 0 0 0
1 1 1 1 1 1 1 1 1 1 1 0 0 0 0 0 0 0 0 0 0 0 0 0 0 0 0 0 0 0 0 0 0 0 0 0 0 0 0 0 0 0 0
1 1 1 1 1 1 1 1 1 1 0 0 0 0 0 0 0 0 0 0 0 0 0 0 0 0 0 0 0 0 0 0 0 0 0 0 0 0 0 0 0 0 0
1 1 1 1 1 1 1 0 0 0 0 0 0 0 0 0 0 0 0 0 0 0 0 0 0 0 0 0 0 0 0 0 0 0 0 0 0 0 0 0 0 0 0
1 1 1 1 1 1 0 0 0 0 0 0 0 0 0 0 0 0 0 0 0 0 0 0 0 0 0 0 0 0 0 0 0 0 0 0 0 0 0 0 0 0 0
0 0 1 1 1 1 0 0 0 0 0 0 0 0 0 0 0 0 0 0 0 0 0 0 0 0 0 0 0 0 0 0 0 0 0 0 0 0 0 0 0 0 0
0 0 1 1 1 0 0 0 0 0 0 0 0 0 0 0 0 0 0 0 0 0 0 0 0 0 0 0 0 0 0 0 0 0 0 0 0 0 0 0 0 0 0
Wind_Speed
19 18 18 17 16 15 14 14 14 14 13 13 13 13 13 13 13 13 13 12 12 12 12 12 11 11 11 11 11 11 11 11 11 12 13 12 11 10 10 11 12 12 14
22 19 18 17 16 15 14 14 14 13 13 13 12 12 12 12 12 12 12 12 12 12 12 12 11 11 11 10 10 9 8 9 9 10 12 11 11 10 9 10 12 10 13
21 19 18 16 16 15 14 14 13 13 13 12 12 11 11 11 11 11 11 11 11 11 11 11 11 11 10 10 8 7 6 6 6 8 8 7 9 11 12 14 15 13 12
21 18 17 18 16 16 15 14 13 13 13 12 12 11 11 11 10 10 10 10 10 11 11 11 11 10 10 9 7 5 4 3 3 4 3 5 8 12 13 13 13 12 12
20 18 18 18 17 16 15 14 13 13 13 12 11 11 10 10 10 10 10 10 10 10 10 10 10 10 9 8 6 4 2 1 2 2 3 7 8 11 12 12 12 11 11
21 19 18 18 17 16 15 14 14 13 12 12 11 10 10 10 9 9 9 9 9 9 9 9 9 9 8 6 5 3 3 4 5 1 6 9 8 10 11 11 11 11 10
21 19 18 18 17 16 15 14 13 13 12 11 11 10 10 9 9 9 8 8 8 9 9 9 8 8 7 5 4 3 4 7 4 2 7 8 9 11 11 10 10 10 10
22 20 17 18 17 16 15 14 13 12 12 11 10 10 9 9 9 8 8 8 8 8 7 7 7 7 6 4 3 4 6 8 3 4 8 9 11 11 11 10 9 10 10
21 19 16 15 15 15 15 13 12 12 11 10 10 9 8 8 8 8 8 7 7 7 6 6 6 5 4 3 1 4 7 9 5 1 9 8 12 12 11 10 9 9 9
18 18 16 15 14 13 12 13 13 12 11 10 9 9 8 8 8 8 8 7 7 6 5 5 4 3 3 2 2 4 7 9 3 3 6 8 13 13 11 10 9 9 8
14 14 15 15 13 13 13 13 12 11 10 9 8 9 8 6 7 7 7 9 8 6 5 5 4 4 4 5 5 6 7 4 2 3 5 11 13 13 11 10 9 9 8
12 11 11 12 11 10 10 10 8 8 8 7 5 6 5 3 3 5 9 10 8 7 6 6 5 5 5 4 6 7 4 2 2 3 6 12 12 12 11 10 9 9 8
11 10 10 8 6 8 7 7 4 4 5 5 5 4 3 2 3 4 4 5 5 6 5 5 5 4 3 1 1 3 3 1 2 4 7 12 11 11 11 10 9 9 9
10 10 10 9 5 4 5 4 4 4 3 3 4 2 2 1 0 2 2 2 3 2 3 3 2 1 1 2 2 2 3 1 2 3 6 12 11 10 10 10 10 10 9
10 10 10 9 7 4 4 2 3 3 4 3 3 2 1 1 1 2 1 1 0 1 2 2 1 0 0 1 2 2 3 3 0 2 5 11 11 10 10 10 10 11 11
10 10 9 9 8 6 4 2 2 3 2 3 3 3 2 2 2 1 1 0 0 0 1 1 1 1 1 1 2 3 3 3 2 1 3 6 10 10 10 11 11 12 12
9 9 9 9 8 6 5 3 3 2 3 3 3 3 2 2 2 1 1 0 0 1 1 1 1 1 1 2 2 3 3 2 2 1 1 2 5 9 11 11 11 12 13
8 8 8 9 9 7 5 3 2 2 3 3 3 3 3 2 1 1 1 1 0 0 1 1 1 1 0 1 2 3 2 2 3 3 2 2 2 3 8 12 12 12 13
8 8 7 8 9 7 6 3 3 3 3 2 3 3 3 2 1 1 2 1 1 0 0 0 2 0 1 1 3 3 3 3 3 4 3 3 3 3 3 8 12 12 13
9 8 8 8 7 7 5 3 3 3 3 3 4 3 3 2 2 1 2 1 1 1 1 1 1 0 1 2 4 2 3 3 3 3 4 3 3 4 4 4 5 8 13
9 8 7 7 7 6 4 4 3 3 3 3 4 4 3 3 3 1 2 2 1 1 2 1 1 2 2 1 2 2 3 4 3 3 3 2 3 4 3 3 3 3 4
10 9 8 8 7 6 5 3 3 3 3 3 4 4 3 3 2 3 2 1 1 2 2 1 1 1 2 1 1 2 2 0 1 2 2 2 1 1 2 3 3 3 3
10 10 8 8 7 6 5 4 4 3 2 4 4 3 3 3 3 4 3 3 2 1 2 1 2 2 2 1 1 1 2 2 2 0 1 1 1 1 1 2 3 4 4
10 9 8 7 6 6 5 4 6 5 4 5 4 4 4 2 3 3 3 3 2 2 3 3 4 3 2 2 1 0 1 1 1 2 1 1 2 2 2 2 1 2 3
11 10 9 7 6 6 5 5 3 3 4 4 5 5 4 3 3 3 4 3 2 3 4 4 3 4 3 4 3 2 2 1 1 1 1 1 1 1 1 1 1 1 2
10 10 10 9 7 6 5 5 3 3 4 6 5 5 3 4 3 3 4 2 2 3 3 3 3 3 3 4 3 3 3 2 2 2 3 3 2 2 1 1 1 1 1
Wind_Direction
121 126 129 128 127 126 124 120 117 115 112 108 103 99 96 93 91 89 88 87 87 85 84 83 83 81 78 76 77 79 82 86 92 94 94 92 88 85 89 99 109 98 102
121 127 128 128 128 127 125 122 119 118 115 112 108 104 100 97 95 93 91 89 87 86 85 84 83 82 80 80 83 86 90 98 107 110 109 99 88 83 86 92 93 104 108
121 128 129 128 128 126 125 124 122 121 119 115 112 109 104 101 99 97 94 92 90 88 88 86 84 83 80 81 85 89 94 107 124 136 141 116 100 90 91 94 100 106 107
126 134 131 129 128 127 126 125 124 123 121 119 116 113 110 106 103 99 97 94 93 92 91 88 86 85 83 83 83 86 92 108 145 167 171 112 105 97 97 99 104 106 108
130 128 128 132 129 128 127 126 126 124 122 121 120 117 113 110 106 104 101 99 97 96 94 91 88 86 85 83 78 70 56 17 275 224 111 99 96 105 104 105 106 107 110
128 127 132 132 130 129 128 127 127 126 125 124 122 119 117 115 112 109 107 104 102 99 97 94 90 87 85 84 74 43 359 331 306 147 116 107 108 112 111 112 112 110 112
128 128 134 133 131 131 130 130 130 129 128 127 125 123 120 119 118 115 112 108 106 103 100 99 96 92 86 78 58 10 338 323 292 109 106 104 112 117 114 114 116 116 117
128 129 133 134 134 134 134 134 133 134 134 133 131 127 124 121 120 121 119 116 112 109 108 106 104 99 93 79 37 348 331 319 346 110 111 112 124 122 119 118 121 122 119
126 131 139 138 137 138 138 138 139 138 138 138 137 136 135 134 133 133 129 124 122 119 119 119 117 113 109 98 19 327 319 318 310 135 116 120 130 130 131 130 128 127 127
129 137 143 144 144 147 145 145 146 146 146 148 148 150 152 155 156 152 149 137 132 131 134 137 138 142 149 164 252 288 302 308 299 81 107 129 137 136 138 138 137 136 134
129 136 143 145 153 156 152 149 153 155 157 158 163 169 173 183 171 170 150 147 149 149 152 162 171 188 208 217 238 261 281 271 34 85 104 138 144 142 145 147 148 148 147
130 134 137 143 154 153 147 147 162 164 161 179 167 174 192 191 158 149 145 158 165 169 173 185 199 216 232 221 222 242 258 249 109 115 126 150 148 148 151 155 158 161 161
137 138 134 140 145 140 132 155 155 151 157 177 157 168 183 167 152 143 154 162 173 183 188 181 204 227 228 231 199 231 268 336 100 110 140 153 150 154 159 164 168 171 172
144 141 139 138 131 124 132 144 148 145 150 154 140 156 136 147 156 116 131 148 168 178 173 169 202 218 319 339 312 295 316 334 93 115 148 155 157 164 168 173 178 182 182
147 146 138 138 133 115 101 128 139 123 145 133 120 113 99 123 91 79 77 70 165 140 151 158 173 189 305 292 290 301 311 320 12 118 140 161 167 173 177 184 188 191 193
156 149 141 138 131 126 125 121 103 114 119 114 113 117 118 100 95 101 133 189 266 97 99 143 193 198 216 269 286 292 293 304 321 102 147 168 178 183 187 192 197 200 200
151 144 137 136 135 136 135 147 127 123 128 119 120 116 112 114 134 153 133 159 285 143 143 174 208 198 230 238 240 253 259 272 289 292 218 177 187 197 199 201 203 206 207
143 139 144 142 138 137 134 142 132 127 117 120 126 124 118 116 125 131 109 99 276 172 177 175 164 205 266 278 257 252 239 226 238 247 243 219 203 197 202 209 208 210 211
140 138 136 133 140 140 141 146 126 106 104 124 119 111 114 118 121 109 100 72 282 122 26 323 93 58 264 262 257 234 232 217 215 231 232 231 218 208 197 207 210 211 214
136 134 132 131 133 139 143 150 144 136 142 129 110 112 117 120 96 81 120 85 348 65 58 39 24 264 257 270 283 267 220 222 207 209 222 222 213 222 214 206 203 217 218
136 135 139 138 139 144 146 157 151 149 147 131 126 119 125 110 96 71 92 118 79 83 54 33 5 295 250 244 288 286 236 215 199 202 201 211 215 220 206 191 195 209 211
148 149 149 146 147 152 144 152 147 137 142 121 102 112 123 117 114 111 70 91 69 98 75 26 24 327 317 68 324 315 303 252 211 199 180 196 212 230 229 212 196 200 218
157 157 153 147 149 148 153 157 134 130 138 119 123 130 120 109 95 64 70 56 8 60 86 18 19 355 336 323 71 358 348 13 334 124 202 138 147 216 252 241 211 204 212
161 153 140 145 145 144 161 159 158 162 152 141 138 126 121 103 105 102 85 71 20 34 63 31 59 350 349 346 41 76 85 63 323 345 321 140 199 203 222 251 230 204 214
159 150 143 145 143 148 158 147 162 153 134 128 118 119 128 119 114 108 98 74 41 60 64 46 39 17 6 11 358 353 355 333 265 276 321 333 298 239 198 199 200 215 201
155 151 148 147 146 151 154 142 152 127 117 117 126 140 165 148 137 115 106 82 62 65 69 52 20 34 39 25 358 347 352 1 356 354 340 330 321 309 284 210 221 230 226